User: anonymous   Login
Location: Hernandez
(10.3704°N, 67.2181°W)
Time: 15:54:34
(UTC+00:00)
Language:

GPS 2-17 Rocket1 - Orbit

View from above orbital plane
View from above orbital plane
View from above satellite
View from above satellite

Ground track
Ground track

The orbit data is extracted from the following two-line orbital elements,

1 22276U 92089B   24174.50135818  .00003336  00000-0  28734-3 0  9998
2 22276  20.2856 257.2890 0056448 300.9549  58.5339 14.89743790704257
Epoch (UTC): 22 June 2024 12:01:57
Eccentricity: 0.0056448
inclination: 20.2856°
perigee height: 559 km
apogee height: 638 km
right ascension of ascending node: 257.2890°
argument of perigee: 300.9549°
revolutions per day: 14.89743790
mean anomaly at epoch: 58.5339°
orbit number at epoch: 70425

The dashed part of the orbit path shows where the satellite is in the earth's shadow,  

DLR